Time,TemperatureF,DewpointF,PressureIn,WindDirection,WindDirectionDegrees,WindSpeedMPH,WindSpeedGustMPH,Humidity,HourlyPrecipIn,Conditions,Clouds,dailyrainin,SoftwareType,DateUTC
2016-08-27 00:01:00,72.1,71.0,30.20,ESE,112,0.0,0.0,96,0.00,,,0.00,Rainwise IP-100,2016-08-27 04:01:00,
2016-08-27 00:06:00,71.9,71.0,30.20,ESE,112,0.0,0.0,96,0.00,,,0.00,Rainwise IP-100,2016-08-27 04:06:00,
2016-08-27 00:11:00,71.8,70.0,30.20,ESE,112,0.0,0.0,96,0.00,,,0.00,Rainwise IP-100,2016-08-27 04:11:00,
2016-08-27 00:15:00,71.9,70.7,30.20,ESE,112,0.0,0.0,96,-99.99,,,0.00,Rainwise +Telemet,2016-08-27 04:15:00,
2016-08-27 00:16:00,71.9,71.0,30.20,ESE,112,0.0,0.0,96,0.00,,,0.00,Rainwise IP-100,2016-08-27 04:16:00,
2016-08-27 00:21:00,71.9,71.0,30.20,ESE,112,0.0,0.0,96,0.00,,,0.00,Rainwise IP-100,2016-08-27 04:21:00,
2016-08-27 00:26:00,71.8,71.0,30.19,ESE,112,0.0,0.0,97,0.00,,,0.00,Rainwise IP-100,2016-08-27 04:26:00,
2016-08-27 00:30:00,71.8,70.6,30.19,ESE,112,0.0,0.0,96,-99.99,,,0.00,Rainwise +Telemet,2016-08-27 04:30:00,
2016-08-27 00:31:00,71.7,71.0,30.19,ESE,112,0.0,0.0,97,0.00,,,0.00,Rainwise IP-100,2016-08-27 04:31:00,
2016-08-27 00:36:00,71.6,71.0,30.19,ESE,112,0.0,0.0,97,0.00,,,0.00,Rainwise IP-100,2016-08-27 04:36:00,
2016-08-27 00:41:00,71.5,71.0,30.19,ESE,112,0.0,0.0,97,0.00,,,0.00,Rainwise IP-100,2016-08-27 04:41:00,
2016-08-27 00:45:00,71.6,70.7,30.19,ESE,112,0.0,0.0,97,-99.99,,,0.00,Rainwise +Telemet,2016-08-27 04:45:00,
2016-08-27 00:46:00,71.5,71.0,30.19,ESE,112,0.0,0.0,97,0.00,,,0.00,Rainwise IP-100,2016-08-27 04:46:00,
2016-08-27 00:51:00,71.6,71.0,30.20,ESE,112,1.6,1.6,97,0.00,,,0.00,Rainwise IP-100,2016-08-27 04:51:00,
2016-08-27 00:56:00,71.7,71.0,30.20,ESE,112,0.0,2.0,97,0.00,,,0.00,Rainwise IP-100,2016-08-27 04:56:00,
2016-08-27 01:00:00,71.6,70.7,30.19,ESE,112,0.2,2.2,97,-99.99,,,0.00,Rainwise +Telemet,2016-08-27 05:00:00,
2016-08-27 01:01:00,71.7,71.0,30.19,ESE,112,0.0,1.0,97,0.00,,,0.00,Rainwise IP-100,2016-08-27 05:01:00,
2016-08-27 01:06:00,71.6,71.0,30.19,ESE,112,0.0,0.0,97,0.00,,,0.00,Rainwise IP-100,2016-08-27 05:06:00,
2016-08-27 01:11:00,71.6,71.0,30.19,ESE,112,0.0,0.0,97,0.00,,,0.00,Rainwise IP-100,2016-08-27 05:11:00,
2016-08-27 01:15:00,71.6,70.7,30.19,ESE,112,0.0,1.1,97,-99.99,,,0.00,Rainwise +Telemet,2016-08-27 05:15:00,
2016-08-27 01:16:00,71.5,71.0,30.19,ESE,112,0.0,2.0,97,0.00,,,0.00,Rainwise IP-100,2016-08-27 05:16:00,
2016-08-27 01:21:00,71.5,71.0,30.19,ESE,112,0.0,1.0,97,0.00,,,0.00,Rainwise IP-100,2016-08-27 05:21:00,
2016-08-27 01:26:00,71.4,70.0,30.20,ESE,112,0.0,1.0,97,0.00,,,0.00,Rainwise IP-100,2016-08-27 05:26:00,
2016-08-27 01:30:00,71.4,70.5,30.19,ESE,112,0.1,2.2,97,-99.99,,,0.00,Rainwise +Telemet,2016-08-27 05:30:00,
2016-08-27 01:31:00,71.3,70.0,30.19,ESE,112,0.0,0.0,97,0.00,,,0.00,Rainwise IP-100,2016-08-27 05:31:00,
2016-08-27 01:36:00,71.2,70.0,30.20,ESE,112,0.0,0.0,98,0.00,,,0.00,Rainwise IP-100,2016-08-27 05:36:00,
2016-08-27 01:41:00,71.2,70.0,30.20,ESE,112,0.0,1.0,98,0.00,,,0.00,Rainwise IP-100,2016-08-27 05:41:00,
2016-08-27 01:46:00,71.3,70.0,30.20,ESE,112,0.0,0.0,98,0.00,,,0.00,Rainwise IP-100,2016-08-27 05:46:00,
2016-08-27 01:51:00,71.3,70.0,30.20,ESE,112,0.0,0.0,98,0.00,,,0.00,Rainwise IP-100,2016-08-27 05:51:00,
2016-08-27 01:56:00,71.4,70.0,30.20,ESE,112,0.0,0.0,98,0.00,,,0.00,Rainwise IP-100,2016-08-27 05:56:00,
2016-08-27 02:00:00,71.3,70.4,30.19,ESE,112,0.0,0.0,97,-99.99,,,0.00,Rainwise +Telemet,2016-08-27 06:00:00,
2016-08-27 02:01:00,71.3,70.0,30.20,ESE,112,0.0,0.0,98,0.00,,,0.00,Rainwise IP-100,2016-08-27 06:01:00,
2016-08-27 02:06:00,71.3,70.0,30.19,ESE,112,0.0,0.0,98,0.00,,,0.00,Rainwise IP-100,2016-08-27 06:06:00,
2016-08-27 02:11:00,71.2,70.0,30.20,SE,135,0.0,1.0,98,0.00,,,0.00,Rainwise IP-100,2016-08-27 06:11:00,
2016-08-27 02:15:00,71.2,70.6,30.19,ESE,119,0.0,1.6,98,-99.99,,,0.00,Rainwise +Telemet,2016-08-27 06:15:00,
2016-08-27 02:16:00,71.3,70.0,30.19,SE,135,0.0,2.0,98,0.00,,,0.00,Rainwise IP-100,2016-08-27 06:16:00,
2016-08-27 02:21:00,71.5,71.0,30.19,SE,135,0.0,0.0,98,0.00,,,0.00,Rainwise IP-100,2016-08-27 06:21:00,
2016-08-27 02:26:00,71.5,71.0,30.20,SE,135,0.0,1.0,98,0.00,,,0.00,Rainwise IP-100,2016-08-27 06:26:00,
2016-08-27 02:31:00,71.6,71.0,30.19,SSE,157,1.2,1.2,98,0.00,,,0.00,Rainwise IP-100,2016-08-27 06:31:00,
2016-08-27 02:36:00,71.6,71.0,30.19,SSE,157,0.0,1.0,98,0.00,,,0.00,Rainwise IP-100,2016-08-27 06:36:00,
2016-08-27 02:41:00,71.6,71.0,30.19,SE,135,1.2,2.0,98,0.00,,,0.00,Rainwise IP-100,2016-08-27 06:41:00,
2016-08-27 02:45:00,71.6,71.0,30.19,SSE,147,0.2,2.1,98,-99.99,,,0.00,Rainwise +Telemet,2016-08-27 06:45:00,
2016-08-27 02:46:00,71.6,71.0,30.19,SE,135,0.0,1.0,98,0.00,,,0.00,Rainwise IP-100,2016-08-27 06:46:00,
2016-08-27 02:51:00,71.6,71.0,30.20,SSE,157,0.0,2.0,98,0.00,,,0.00,Rainwise IP-100,2016-08-27 06:51:00,
2016-08-27 02:56:00,71.6,71.0,30.19,SSE,157,0.0,2.0,98,0.00,,,0.00,Rainwise IP-100,2016-08-27 06:56:00,
2016-08-27 03:00:00,71.6,71.0,30.18,SSE,151,0.1,2.2,98,-99.99,,,0.00,Rainwise +Telemet,2016-08-27 07:00:00,
2016-08-27 03:01:00,71.6,71.0,30.19,SSE,157,0.0,1.0,98,0.00,,,0.00,Rainwise IP-100,2016-08-27 07:01:00,
2016-08-27 03:06:00,71.6,71.0,30.19,ESE,112,0.0,3.0,98,0.00,,,0.00,Rainwise IP-100,2016-08-27 07:06:00,
2016-08-27 03:11:00,71.6,71.0,30.19,ESE,112,1.2,1.2,98,0.00,,,0.00,Rainwise IP-100,2016-08-27 07:11:00,
2016-08-27 03:15:00,71.5,70.6,30.19,SE,127,0.1,3.0,97,-99.99,,,0.00,Rainwise +Telemet,2016-08-27 07:15:00,
2016-08-27 03:16:00,71.5,71.0,30.19,SSE,157,0.0,2.0,98,0.00,,,0.00,Rainwise IP-100,2016-08-27 07:16:00,
2016-08-27 03:21:00,71.5,71.0,30.19,SSE,157,0.0,1.0,98,0.00,,,0.00,Rainwise IP-100,2016-08-27 07:21:00,
2016-08-27 03:26:00,71.6,71.0,30.19,SE,135,0.0,2.0,98,0.00,,,0.00,Rainwise IP-100,2016-08-27 07:26:00,
2016-08-27 03:30:00,71.5,70.6,30.19,SSE,149,0.1,2.1,97,-99.99,,,0.00,Rainwise +Telemet,2016-08-27 07:30:00,
2016-08-27 03:31:00,71.5,71.0,30.19,SE,135,0.0,0.0,98,0.00,,,0.00,Rainwise IP-100,2016-08-27 07:31:00,
2016-08-27 03:36:00,71.5,71.0,30.19,SE,135,0.0,1.0,98,0.00,,,0.00,Rainwise IP-100,2016-08-27 07:36:00,
2016-08-27 03:41:00,71.5,71.0,30.19,SE,135,0.0,2.0,98,0.00,,,0.00,Rainwise IP-100,2016-08-27 07:41:00,
2016-08-27 03:45:00,71.4,70.5,30.18,SE,135,0.0,2.2,97,-99.99,,,0.00,Rainwise +Telemet,2016-08-27 07:45:00,
2016-08-27 03:46:00,71.4,70.0,30.18,SE,135,0.0,1.0,98,0.00,,,0.00,Rainwise IP-100,2016-08-27 07:46:00,
2016-08-27 03:51:00,71.5,71.0,30.18,SE,135,0.0,1.0,98,0.00,,,0.00,Rainwise IP-100,2016-08-27 07:51:00,
2016-08-27 03:56:00,71.5,71.0,30.18,SE,135,0.0,1.0,98,0.00,,,0.00,Rainwise IP-100,2016-08-27 07:56:00,
2016-08-27 04:00:00,71.4,70.5,30.18,SE,136,0.2,2.1,97,-99.99,,,0.00,Rainwise +Telemet,2016-08-27 08:00:00,
2016-08-27 04:01:00,71.3,70.0,30.18,SSE,157,0.0,2.0,98,0.00,,,0.00,Rainwise IP-100,2016-08-27 08:01:00,
2016-08-27 04:06:00,71.3,70.0,30.18,ESE,112,0.0,2.0,98,0.00,,,0.00,Rainwise IP-100,2016-08-27 08:06:00,
2016-08-27 04:11:00,71.3,70.0,30.18,ESE,112,0.0,1.0,98,0.00,,,0.00,Rainwise IP-100,2016-08-27 08:11:00,
2016-08-27 04:15:00,71.3,70.4,30.18,SE,128,0.1,2.6,97,-99.99,,,0.00,Rainwise +Telemet,2016-08-27 08:15:00,
2016-08-27 04:16:00,71.3,70.0,30.18,ESE,112,0.0,2.0,98,0.00,,,0.00,Rainwise IP-100,2016-08-27 08:16:00,
2016-08-27 04:21:00,71.3,70.0,30.19,ESE,112,0.0,1.0,98,0.00,,,0.00,Rainwise IP-100,2016-08-27 08:21:00,
2016-08-27 04:26:00,71.2,70.0,30.19,ESE,112,1.2,1.2,98,0.00,,,0.00,Rainwise IP-100,2016-08-27 08:26:00,
2016-08-27 04:30:00,71.2,70.3,30.18,ESE,112,0.2,1.8,97,-99.99,,,0.00,Rainwise +Telemet,2016-08-27 08:30:00,
2016-08-27 04:31:00,71.2,70.0,30.19,ESE,112,0.0,1.0,98,0.00,,,0.00,Rainwise IP-100,2016-08-27 08:31:00,
2016-08-27 04:41:00,71.2,70.0,30.18,ESE,112,0.0,2.0,98,0.00,,,0.00,Rainwise IP-100,2016-08-27 08:41:00,
2016-08-27 04:45:00,71.2,70.6,30.18,ESE,112,0.3,2.6,98,-99.99,,,0.00,Rainwise +Telemet,2016-08-27 08:45:00,
2016-08-27 04:46:00,71.2,70.0,30.18,ESE,112,0.0,2.0,98,0.00,,,0.00,Rainwise IP-100,2016-08-27 08:46:00,
2016-08-27 04:51:00,71.2,70.0,30.18,ESE,112,0.0,1.0,98,0.00,,,0.00,Rainwise IP-100,2016-08-27 08:51:00,
2016-08-27 04:56:00,71.1,70.0,30.18,ESE,112,0.0,1.0,98,0.00,,,0.00,Rainwise IP-100,2016-08-27 08:56:00,
2016-08-27 05:00:00,71.1,70.5,30.17,ESE,112,0.1,1.8,98,-99.99,,,0.00,Rainwise +Telemet,2016-08-27 09:00:00,
2016-08-27 05:06:00,71.0,70.0,30.18,ESE,112,0.0,2.0,98,0.00,,,0.00,Rainwise IP-100,2016-08-27 09:06:00,
2016-08-27 05:11:00,71.0,70.0,30.18,ESE,112,0.0,1.0,98,0.00,,,0.00,Rainwise IP-100,2016-08-27 09:11:00,
2016-08-27 05:15:00,71.0,70.4,30.17,ESE,112,0.1,2.1,98,-99.99,,,0.00,Rainwise +Telemet,2016-08-27 09:15:00,
2016-08-27 05:16:00,70.9,70.0,30.18,ESE,112,2.3,2.3,99,0.00,,,0.00,Rainwise IP-100,2016-08-27 09:16:00,
2016-08-27 05:21:00,71.0,70.0,30.17,ESE,112,1.9,4.0,99,0.00,,,0.00,Rainwise IP-100,2016-08-27 09:21:00,
2016-08-27 05:26:00,71.0,70.0,30.18,ESE,112,0.0,3.0,99,0.00,,,0.00,Rainwise IP-100,2016-08-27 09:26:00,
2016-08-27 05:30:00,70.9,70.3,30.17,ESE,112,1.3,4.0,98,-99.99,,,0.00,Rainwise +Telemet,2016-08-27 09:30:00,
2016-08-27 05:31:00,71.0,70.0,30.18,ESE,112,1.2,2.0,99,0.00,,,0.00,Rainwise IP-100,2016-08-27 09:31:00,
2016-08-27 05:36:00,70.9,70.0,30.18,ESE,112,1.9,2.0,99,0.00,,,0.00,Rainwise IP-100,2016-08-27 09:36:00,
2016-08-27 05:41:00,70.9,70.0,30.18,ESE,112,0.0,3.0,99,0.00,,,0.00,Rainwise IP-100,2016-08-27 09:41:00,
2016-08-27 05:45:00,70.9,70.3,30.17,ESE,112,0.8,3.2,98,-99.99,,,0.00,Rainwise +Telemet,2016-08-27 09:45:00,
2016-08-27 05:46:00,70.9,70.0,30.17,ESE,112,1.4,1.4,99,0.00,,,0.00,Rainwise IP-100,2016-08-27 09:46:00,
2016-08-27 05:51:00,70.8,70.0,30.17,ESE,112,0.0,1.0,99,0.00,,,0.00,Rainwise IP-100,2016-08-27 09:51:00,
2016-08-27 05:56:00,70.7,70.0,30.17,ESE,112,0.0,2.0,99,0.00,,,0.00,Rainwise IP-100,2016-08-27 09:56:00,
2016-08-27 06:00:00,70.7,70.1,30.16,ESE,112,0.4,2.6,98,-99.99,,,0.00,Rainwise +Telemet,2016-08-27 10:00:00,
2016-08-27 06:01:00,70.7,70.0,30.17,ESE,112,0.0,1.0,99,0.00,,,0.00,Rainwise IP-100,2016-08-27 10:01:00,
2016-08-27 06:06:00,70.6,70.0,30.17,ESE,112,0.0,1.0,99,0.00,,,0.00,Rainwise IP-100,2016-08-27 10:06:00,
2016-08-27 06:11:00,70.6,70.0,30.17,SE,135,0.0,2.0,99,0.00,,,0.00,Rainwise IP-100,2016-08-27 10:11:00,
2016-08-27 06:15:00,70.6,70.3,30.16,SE,128,0.1,2.6,99,-99.99,,,0.00,Rainwise +Telemet,2016-08-27 10:15:00,
2016-08-27 06:16:00,70.5,70.0,30.17,SE,135,0.0,1.0,99,0.00,,,0.00,Rainwise IP-100,2016-08-27 10:16:00,
2016-08-27 06:21:00,70.5,70.0,30.17,East,90,0.0,2.0,99,0.00,,,0.00,Rainwise IP-100,2016-08-27 10:21:00,
2016-08-27 06:26:00,70.6,70.0,30.16,SE,135,0.0,3.0,99,0.06,,,0.01,Rainwise IP-100,2016-08-27 10:26:00,
2016-08-27 06:30:00,70.5,69.9,30.16,SE,137,0.3,3.5,98,-99.99,,,0.00,Rainwise +Telemet,2016-08-27 10:30:00,
2016-08-27 06:32:00,70.6,70.0,30.17,SSE,157,0.0,3.0,99,0.06,,,0.01,Rainwise IP-100,2016-08-27 10:32:00,
2016-08-27 06:36:00,70.5,70.0,30.17,SE,135,0.0,2.0,99,0.00,,,0.01,Rainwise IP-100,2016-08-27 10:36:00,
2016-08-27 06:41:00,70.6,70.0,30.17,SE,135,0.0,2.0,99,0.00,,,0.01,Rainwise IP-100,2016-08-27 10:41:00,
2016-08-27 06:46:00,70.6,70.0,30.17,SSW,202,0.0,1.0,99,0.00,,,0.01,Rainwise IP-100,2016-08-27 10:46:00,
2016-08-27 06:51:00,70.6,70.0,30.17,SSE,157,0.0,2.0,99,0.00,,,0.01,Rainwise IP-100,2016-08-27 10:51:00,
2016-08-27 06:56:00,70.5,70.0,30.18,East,90,1.2,3.0,99,0.00,,,0.01,Rainwise IP-100,2016-08-27 10:56:00,
2016-08-27 07:00:00,70.5,69.9,30.16,SSE,161,0.2,3.2,98,-99.99,,,0.01,Rainwise +Telemet,2016-08-27 11:00:00,
2016-08-27 07:01:00,70.5,70.0,30.17,SSE,157,0.0,1.0,99,0.00,,,0.01,Rainwise IP-100,2016-08-27 11:01:00,
2016-08-27 07:06:00,70.5,70.0,30.17,SSE,157,0.0,1.0,99,0.00,,,0.01,Rainwise IP-100,2016-08-27 11:06:00,
2016-08-27 07:12:00,70.5,70.0,30.18,SSE,157,0.0,1.0,99,0.00,,,0.01,Rainwise IP-100,2016-08-27 11:12:00,
2016-08-27 07:15:00,70.5,69.9,30.17,SSE,157,0.0,2.6,98,-99.99,,,0.01,Rainwise +Telemet,2016-08-27 11:15:00,
2016-08-27 07:17:00,70.4,70.0,30.18,SSE,157,0.0,2.0,99,0.00,,,0.01,Rainwise IP-100,2016-08-27 11:17:00,
2016-08-27 07:22:00,70.4,70.0,30.18,SSE,157,0.0,2.0,99,0.00,,,0.01,Rainwise IP-100,2016-08-27 11:22:00,
2016-08-27 07:27:00,70.5,70.0,30.18,SSE,157,0.0,1.0,99,0.00,,,0.01,Rainwise IP-100,2016-08-27 11:27:00,
2016-08-27 07:30:00,70.4,70.1,30.17,SSE,157,0.1,2.7,99,-99.99,,,0.01,Rainwise +Telemet,2016-08-27 11:30:00,
2016-08-27 07:31:00,70.4,70.1,30.17,SSE,157,0.1,2.7,99,-99.99,,,0.01,Rainwise +Telemet,2016-08-27 11:31:00,
2016-08-27 07:37:00,70.6,70.0,30.19,SSE,157,0.0,0.0,99,0.00,,,0.01,Rainwise IP-100,2016-08-27 11:37:00,
2016-08-27 07:42:00,70.6,70.0,30.19,SSE,157,0.0,0.0,99,0.00,,,0.01,Rainwise IP-100,2016-08-27 11:42:00,
2016-08-27 07:45:00,70.5,69.9,30.18,SSE,157,0.0,0.0,98,-99.99,,,0.01,Rainwise +Telemet,2016-08-27 11:45:00,
2016-08-27 07:47:00,70.7,70.0,30.19,South,180,0.0,2.0,99,0.00,,,0.01,Rainwise IP-100,2016-08-27 11:47:00,
2016-08-27 07:52:00,70.8,70.0,30.19,SSE,157,0.0,2.0,99,0.00,,,0.01,Rainwise IP-100,2016-08-27 11:52:00,
2016-08-27 07:57:00,71.1,70.0,30.20,SSW,202,0.0,2.0,99,0.00,,,0.01,Rainwise IP-100,2016-08-27 11:57:00,
2016-08-27 08:00:00,70.8,70.5,30.19,South,178,0.1,2.7,99,-99.99,,,0.01,Rainwise +Telemet,2016-08-27 12:00:00,
2016-08-27 08:02:00,71.4,71.0,30.19,SSE,157,0.0,1.0,99,0.00,,,0.01,Rainwise IP-100,2016-08-27 12:02:00,
2016-08-27 08:07:00,71.5,71.0,30.20,SSE,157,0.0,0.0,99,0.00,,,0.01,Rainwise IP-100,2016-08-27 12:07:00,
2016-08-27 08:12:00,71.6,71.0,30.20,SSE,157,0.0,1.0,99,0.00,,,0.01,Rainwise IP-100,2016-08-27 12:12:00,
2016-08-27 08:15:00,71.5,70.9,30.19,SSE,155,0.1,2.7,98,-99.99,,,0.01,Rainwise +Telemet,2016-08-27 12:15:00,
2016-08-27 08:17:00,71.7,71.0,30.20,SE,135,0.0,2.0,99,0.00,,,0.01,Rainwise IP-100,2016-08-27 12:17:00,
2016-08-27 08:21:00,71.5,70.9,30.19,SSE,155,0.1,2.7,98,-99.99,,,0.01,Rainwise +Telemet,2016-08-27 12:21:00,
2016-08-27 08:27:00,72.1,71.0,30.20,SSE,157,0.0,1.0,99,0.00,,,0.01,Rainwise IP-100,2016-08-27 12:27:00,
2016-08-27 08:30:00,71.9,71.3,30.19,SSE,149,0.1,2.1,98,-99.99,,,0.01,Rainwise +Telemet,2016-08-27 12:30:00,
2016-08-27 08:32:00,72.3,72.0,30.20,SSE,157,0.0,1.0,99,0.00,,,0.01,Rainwise IP-100,2016-08-27 12:32:00,
2016-08-27 08:37:00,72.4,72.0,30.20,West,270,1.2,0.0,99,0.00,,,0.01,Rainwise IP-100,2016-08-27 12:37:00,
2016-08-27 08:42:00,72.6,72.0,30.20,West,270,0.0,6.0,99,0.00,,,0.01,Rainwise IP-100,2016-08-27 12:42:00,
2016-08-27 08:45:00,72.4,71.8,30.20,SW,228,1.0,6.2,98,-99.99,,,0.01,Rainwise +Telemet,2016-08-27 12:45:00,
2016-08-27 08:47:00,72.8,72.0,30.21,WNW,292,3.7,5.0,99,0.00,,,0.01,Rainwise IP-100,2016-08-27 12:47:00,
2016-08-27 08:52:00,72.9,72.0,30.21,WNW,292,0.0,4.0,98,0.00,,,0.01,Rainwise IP-100,2016-08-27 12:52:00,
2016-08-27 08:57:00,73.1,72.0,30.21,WNW,292,2.1,4.0,98,0.00,,,0.01,Rainwise IP-100,2016-08-27 12:57:00,
2016-08-27 09:00:00,72.9,72.3,30.20,West,277,1.9,5.4,98,-99.99,,,0.01,Rainwise +Telemet,2016-08-27 13:00:00,
2016-08-27 09:02:00,73.4,72.0,30.21,WNW,292,0.0,4.0,98,0.00,,,0.01,Rainwise IP-100,2016-08-27 13:02:00,
2016-08-27 09:07:00,73.6,73.0,30.21,WNW,292,2.8,6.0,98,0.00,,,0.01,Rainwise IP-100,2016-08-27 13:07:00,
2016-08-27 09:12:00,74.0,73.0,30.21,WNW,292,4.0,4.0,98,0.00,,,0.01,Rainwise IP-100,2016-08-27 13:12:00,
2016-08-27 09:15:00,73.6,73.0,30.21,West,273,2.1,6.0,98,-99.99,,,0.01,Rainwise +Telemet,2016-08-27 13:15:00,
2016-08-27 09:17:00,74.5,74.0,30.21,WNW,292,2.8,6.0,98,0.00,,,0.01,Rainwise IP-100,2016-08-27 13:17:00,
2016-08-27 09:22:00,75.0,74.0,30.21,WSW,247,0.0,4.0,97,0.00,,,0.01,Rainwise IP-100,2016-08-27 13:22:00,
2016-08-27 09:27:00,75.4,74.0,30.22,WNW,292,2.1,2.1,97,0.00,,,0.01,Rainwise IP-100,2016-08-27 13:27:00,
2016-08-27 09:30:00,74.9,74.0,30.21,WNW,286,1.1,4.4,97,-99.99,,,0.01,Rainwise +Telemet,2016-08-27 13:30:00,
2016-08-27 09:32:00,75.5,74.0,30.22,WNW,292,1.4,3.0,96,0.00,,,0.01,Rainwise IP-100,2016-08-27 13:32:00,
2016-08-27 09:37:00,75.7,74.0,30.21,WNW,292,2.8,4.0,96,0.00,,,0.01,Rainwise IP-100,2016-08-27 13:37:00,
2016-08-27 09:42:00,75.9,74.0,30.21,WNW,292,3.0,5.0,96,0.00,,,0.01,Rainwise IP-100,2016-08-27 13:42:00,
2016-08-27 09:45:00,75.7,74.5,30.21,West,273,1.8,7.5,96,-99.99,,,0.01,Rainwise +Telemet,2016-08-27 13:45:00,
2016-08-27 09:47:00,76.0,74.0,30.20,WSW,247,0.0,7.0,95,0.00,,,0.01,Rainwise IP-100,2016-08-27 13:47:00,
2016-08-27 09:52:00,76.1,74.0,30.20,WSW,247,0.0,4.0,95,0.00,,,0.01,Rainwise IP-100,2016-08-27 13:52:00,
2016-08-27 09:57:00,76.2,74.0,30.20,WSW,247,2.3,5.0,95,0.00,,,0.01,Rainwise IP-100,2016-08-27 13:57:00,
2016-08-27 10:00:00,76.0,74.5,30.20,West,263,1.6,5.5,95,-99.99,,,0.01,Rainwise +Telemet,2016-08-27 14:00:00,
2016-08-27 10:02:00,76.5,74.0,30.21,WSW,247,0.0,3.0,95,0.00,,,0.01,Rainwise IP-100,2016-08-27 14:02:00,
2016-08-27 10:07:00,76.8,74.0,30.20,SW,225,0.0,3.0,94,0.00,,,0.01,Rainwise IP-100,2016-08-27 14:07:00,
2016-08-27 10:12:00,77.2,75.0,30.20,SSW,202,0.0,4.0,94,0.00,,,0.01,Rainwise IP-100,2016-08-27 14:12:00,
2016-08-27 10:15:00,76.8,74.9,30.20,SW,229,0.8,4.0,94,-99.99,,,0.01,Rainwise +Telemet,2016-08-27 14:15:00,
2016-08-27 10:17:00,77.5,76.0,30.20,South,180,0.0,3.0,94,0.00,,,0.01,Rainwise IP-100,2016-08-27 14:17:00,
2016-08-27 10:22:00,78.1,76.0,30.20,SSW,202,0.0,3.0,94,0.00,,,0.01,Rainwise IP-100,2016-08-27 14:22:00,
2016-08-27 10:27:00,78.9,76.0,30.20,SSW,202,0.0,3.0,93,0.00,,,0.01,Rainwise IP-100,2016-08-27 14:27:00,
2016-08-27 10:30:00,78.1,75.9,30.20,SSW,210,0.5,3.7,93,-99.99,,,0.01,Rainwise +Telemet,2016-08-27 14:30:00,
2016-08-27 10:32:00,79.5,77.0,30.20,WNW,292,1.2,1.2,93,0.00,,,0.01,Rainwise IP-100,2016-08-27 14:32:00,
2016-08-27 10:37:00,80.5,78.0,30.20,WNW,292,1.9,3.0,92,0.00,,,0.01,Rainwise IP-100,2016-08-27 14:37:00,
2016-08-27 10:42:00,81.1,78.0,30.20,SSE,157,0.0,2.0,91,0.00,,,0.01,Rainwise IP-100,2016-08-27 14:42:00,
2016-08-27 10:45:00,80.4,77.5,30.20,West,266,0.8,4.9,91,-99.99,,,0.01,Rainwise +Telemet,2016-08-27 14:45:00,
2016-08-27 10:47:00,81.2,77.0,30.20,SW,225,2.8,4.0,89,0.00,,,0.01,Rainwise IP-100,2016-08-27 14:47:00,
2016-08-27 10:52:00,81.5,78.0,30.20,SSW,202,0.0,3.0,89,0.00,,,0.01,Rainwise IP-100,2016-08-27 14:52:00,
2016-08-27 10:57:00,81.8,77.0,30.21,WNW,292,1.2,4.0,88,0.00,,,0.01,Rainwise IP-100,2016-08-27 14:57:00,
2016-08-27 11:00:00,81.4,77.5,30.20,WSW,258,1.3,4.2,88,-99.99,,,0.01,Rainwise +Telemet,2016-08-27 15:00:00,
2016-08-27 11:02:00,82.2,78.0,30.21,West,270,0.0,3.0,88,0.00,,,0.01,Rainwise IP-100,2016-08-27 15:02:00,
2016-08-27 11:07:00,82.5,78.0,30.21,WNW,292,3.0,4.0,87,0.00,,,0.01,Rainwise IP-100,2016-08-27 15:07:00,
2016-08-27 11:12:00,81.8,77.0,30.21,WNW,292,3.3,6.0,86,0.00,,,0.01,Rainwise IP-100,2016-08-27 15:12:00,
2016-08-27 11:15:00,82.0,77.4,30.21,WNW,287,2.1,6.5,86,-99.99,,,0.01,Rainwise +Telemet,2016-08-27 15:15:00,
2016-08-27 11:17:00,81.0,76.0,30.22,WNW,292,1.6,4.0,85,0.00,,,0.01,Rainwise IP-100,2016-08-27 15:17:00,
2016-08-27 11:22:00,80.8,75.0,30.22,WNW,292,3.0,5.0,84,0.00,,,0.01,Rainwise IP-100,2016-08-27 15:22:00,
2016-08-27 11:27:00,80.6,75.0,30.22,WNW,292,4.9,4.9,84,0.00,,,0.01,Rainwise IP-100,2016-08-27 15:27:00,
2016-08-27 11:30:00,80.8,75.5,30.21,WNW,295,2.2,6.0,84,-99.99,,,0.01,Rainwise +Telemet,2016-08-27 15:30:00,
2016-08-27 11:32:00,80.4,75.0,30.22,WNW,292,2.1,8.0,84,0.00,,,0.01,Rainwise IP-100,2016-08-27 15:32:00,
2016-08-27 11:37:00,80.0,74.0,30.22,WNW,292,0.0,7.0,84,0.00,,,0.01,Rainwise IP-100,2016-08-27 15:37:00,
2016-08-27 11:42:00,79.6,74.0,30.22,WNW,292,3.5,5.0,85,0.00,,,0.01,Rainwise IP-100,2016-08-27 15:42:00,
2016-08-27 11:45:00,79.9,74.6,30.22,NW,322,2.7,8.9,84,-99.99,,,0.01,Rainwise +Telemet,2016-08-27 15:45:00,
2016-08-27 11:47:00,79.2,74.0,30.23,WNW,292,1.4,8.0,85,0.00,,,0.01,Rainwise IP-100,2016-08-27 15:47:00,
2016-08-27 11:52:00,78.6,74.0,30.23,NW,315,5.6,12.0,86,0.00,,,0.01,Rainwise IP-100,2016-08-27 15:52:00,
2016-08-27 11:57:00,77.9,73.0,30.23,NNW,337,2.3,8.0,87,0.00,,,0.01,Rainwise IP-100,2016-08-27 15:57:00,
2016-08-27 12:00:00,78.4,73.9,30.22,NW,322,3.4,12.8,86,-99.99,,,0.01,Rainwise +Telemet,2016-08-27 16:00:00,
2016-08-27 12:02:00,76.9,73.0,30.23,North,360,5.4,11.0,88,0.06,,,0.02,Rainwise IP-100,2016-08-27 16:02:00,
2016-08-27 12:07:00,76.3,72.0,30.22,WNW,292,2.6,8.0,89,0.06,,,0.03,Rainwise IP-100,2016-08-27 16:07:00,
2016-08-27 12:12:00,75.9,73.0,30.22,WNW,292,2.8,5.0,91,0.06,,,0.04,Rainwise IP-100,2016-08-27 16:12:00,
2016-08-27 12:15:00,76.3,72.8,30.22,NW,320,2.0,8.1,89,-99.99,,,0.02,Rainwise +Telemet,2016-08-27 16:15:00,
2016-08-27 12:17:00,75.7,73.0,30.22,WNW,292,0.0,5.0,92,0.12,,,0.04,Rainwise IP-100,2016-08-27 16:17:00,
2016-08-27 12:22:00,75.5,73.0,30.21,NNW,337,1.4,3.0,92,0.06,,,0.04,Rainwise IP-100,2016-08-27 16:22:00,
2016-08-27 12:27:00,75.4,73.0,30.22,WNW,292,2.1,2.1,93,0.00,,,0.04,Rainwise IP-100,2016-08-27 16:27:00,
2016-08-27 12:32:00,75.4,73.0,30.21,NW,315,1.2,2.0,93,0.00,,,0.04,Rainwise IP-100,2016-08-27 16:32:00,
2016-08-27 12:37:00,75.5,73.0,30.22,WNW,292,2.3,4.0,93,0.00,,,0.04,Rainwise IP-100,2016-08-27 16:37:00,